Cloud_Cover
65 40 93 90 100 80 100 98 100 100 100 100 99 100 100 99 98 100 99 100 100 94 44 48 27 0 0 0 0 0 0 0 0 0 0 0 0 0 0 0 4 5 6 3 4 6 5 5 24
100 92 93 83 89 100 100 100 100 100 55 73 53 97 98 99 74 100 100 100 100 73 27 44 0 0 2 0 0 0 0 0 0 0 0 0 0 0 0 0 0 3 6 5 5 5 7 12 92
19 80 100 72 34 95 100 98 100 100 100 100 80 100 75 99 74 97 99 100 71 46 45 10 4 0 8 0 0 0 0 0 0 0 0 0 3 0 0 2 0 1 0 0 1 6 13 5 78
77 68 46 99 100 100 100 100 72 72 96 100 100 33 52 100 78 77 45 77 81 66 67 1 1 0 0 0 0 0 0 0 0 0 0 0 0 8 12 9 1 2 0 0 31 5 3 4 5
98 30 10 99 100 64 94 75 67 91 90 93 95 88 68 100 94 8 65 97 100 100 10 11 0 0 0 0 0 0 3 0 0 0 0 0 0 3 4 1 0 2 0 0 27 42 2 3 5
98 40 96 100 100 18 90 33 96 40 20 18 20 72 74 98 14 78 48 91 94 18 0 0 0 0 0 0 0 2 0 0 0 0 0 0 0 0 4 0 0 0 0 0 0 0 0 0 0
32 94 24 100 90 24 90 30 100 5 7 58 32 77 92 100 100 95 98 71 100 32 0 0 0 0 0 0 0 0 0 0 0 0 0 0 0 0 0 0 0 0 0 0 0 0 0 0 0
85 6 13 76 54 100 7 96 5 4 0 2 37 53 98 75 100 92 100 67 100 26 0 0 0 0 0 0 0 0 0 0 0 0 0 0 0 0 0 0 0 0 0 0 0 0 0 0 0
0 8 71 78 93 100 49 40 21 5 3 6 57 14 40 99 100 80 100 100 100 79 0 0 0 0 0 0 0 0 0 0 0 0 0 18 95 84 2 0 0 0 0 0 0 0 0 1 0
2 84 100 100 48 100 90 28 14 53 72 80 100 34 39 84 100 100 100 100 100 70 6 0 0 0 0 0 0 0 0 0 45 38 16 100 76 54 66 0 0 5 4 5 0 0 22 44 34
0 100 100 51 75 100 8 88 5 7 62 100 68 34 25 52 100 100 100 97 37 59 30 0 1 0 0 24 0 0 0 6 58 60 30 58 37 78 20 9 41 30 8 46 69 100 84 100 43
1 94 73 87 100 38 99 100 100 79 23 4 3 0 1 27 18 84 97 32 97 68 8 0 0 0 1 1 0 0 0 16 35 24 0 36 76 5 94 100 85 42 60 9 97 95 6 76 10
5 47 15 36 49 84 57 89 75 99 12 21 1 5 7 33 28 79 51 55 84 35 1 0 1 4 0 1 0 3 0 0 17 3 0 30 87 39 44 22 100 20 23 93 33 86 86 100 74
43 7 96 100 94 94 60 99 99 98 62 5 17 3 5 24 31 42 27 14 12 2 0 0 0 0 0 0 10 3 0 0 0 0 5 0 19 100 100 65 98 100 92 39 79 5 34 12 22
100 36 12 67 100 95 29 62 5 58 89 27 5 9 8 0 3 4 0 0 0 0 0 0 0 0 0 1 1 0 0 0 0 0 1 0 0 3 10 93 97 100 98 5 70 44 72 100 10
5 41 99 81 93 60 0 100 13 9 15 1 0 0 0 0 0 0 0 0 0 0 0 0 0 0 0 0 0 0 0 0 0 0 0 0 0 0 6 28 100 51 3 42 27 47 97 5 20
2 5 7 100 69 78 4 91 100 29 0 0 0 0 0 0 0 0 0 0 0 0 0 0 0 0 0 0 0 0 0 0 0 0 0 0 0 0 0 77 100 34 100 27 87 96 24 43 5
0 0 84 52 70 67 27 93 93 83 3 8 0 0 0 0 0 0 0 0 0 0 0 0 0 0 0 0 0 0 0 0 0 0 0 10 0 8 8 24 13 0 97 100 81 22 62 25 0
5 2 84 39 100 26 94 95 7 100 56 100 3 0 0 0 0 0 0 0 0 0 0 0 0 0 0 0 0 0 0 0 0 0 0 0 0 4 0 16 100 5 51 1 0 0 1 100 2
0 5 30 100 26 98 100 89 85 98 56 46 67 0 0 0 0 0 0 0 0 0 0 0 0 0 0 0 0 0 0 0 0 0 0 0 5 36 13 3 61 97 7 39 0 0 99 20 0
0 0 4 87 70 98 88 73 92 56 99 65 47 2 0 0 0 0 0 0 0 0 0 0 0 0 0 0 0 0 0 0 0 0 0 0 0 0 7 53 0 17 1 60 16 14 0 100 1
0 0 0 3 99 92 12 50 28 45 58 7 13 41 4 0 0 0 0 0 0 0 0 0 0 0 0 0 0 0 0 0 0 0 0 0 0 0 0 11 1 0 0 99 17 0 19 0 7
0 0 0 0 5 63 64 26 5 51 21 8 4 31 6 0 0 0 0 0 0 0 0 0 0 0 0 0 0 0 0 0 0 0 0 0 4 0 0 9 11 2 0 20 2 31 0 10 0
0 0 0 0 0 0 1 5 5 49 79 76 4 6 21 5 0 0 0 0 0 0 0 0 0 0 0 0 0 0 0 0 0 0 0 0 0 0 0 0 0 0 0 19 11 0 1 0 0
0 0 0 0 0 0 0 0 0 5 5 5 5 5 4 0 0 0 0 0 0 0 0 0 0 0 0 0 0 0 0 0 0 0 0 0 0 0 0 0 0 0 0 7 1 0 0 3 0
0 0 0 0 0 0 0 0 0 0 3 5 5 5 4 0 0 0 0 0 0 0 0 0 0 0 0 0 0 0 0 0 0 0 0 0 0 0 0 0 0 0 0 0 0 0 1 0 0
0 0 0 0 0 0 0 0 0 0 0 0 0 5 5 1 0 0 0 0 0 0 0 0 0 0 0 0 0 0 0 0 0 0 0 0 0 0 0 0 0 0 0 0 0 0 0 0 0
0 0 0 0 0 0 0 0 0 0 0 0 0 0 1 2 1 0 0 0 0 0 0 0 0 0 0 0 0 0 0 0 0 0 0 0 0 0 0 0 0 0 0 0 0 0 0 0 3
0 0 0 0 0 0 0 0 0 0 0 0 0 1 93 54 2 0 0 0 0 0 0 0 0 0 0 0 0 0 0 0 0 0 0 0 0 0 0 2 2 0 3 4 0 0 0 0 0
0 0 0 0 0 0 0 0 0 0 0 4 0 0 92 53 5 0 0 0 0 0 0 0 0 0 0 0 0 0 0 0 0 0 0 0 0 0 74 100 98 38 19 5 0 5 5 0 2